Location: Copeville
(33.0796°N, 96.4155°W)
Time: 04:32:39
(UTC+00:00)

Max Valier Satellite - Visible Passes

Search period start: 23 March 2023 00:00
Search period end: 02 April 2023 00:00
Orbit: 455 x 469 km, 97.2° (Epoch: 21 March)

Date Brightness Start Highest point End Pass type
(mag) Time Alt. Az. Time Alt. Az. Time Alt. Az.
23 Mar ? 02:16:39 22° SSW 02:18:34 48° W 02:21:55 10° NNW visible
24 Mar ? 01:44:55 17° SSE 01:47:17 51° ENE 01:50:38 10° N visible
25 Mar ? 01:13:42 10° ESE 01:16:06 18° ENE 01:18:30 10° NNE visible
25 Mar ? 02:47:03 12° SW 02:48:57 17° W 02:51:18 10° NW visible
26 Mar ? 02:15:15 19° S 02:17:28 50° W 02:20:49 10° NNW visible
27 Mar ? 01:43:24 15° SSE 01:46:03 49° ENE 01:49:23 10° N visible
28 Mar ? 01:12:24 10° ESE 01:14:44 17° ENE 01:17:04 10° NNE visible
28 Mar ? 02:45:24 11° SW 02:47:34 18° W 02:49:59 10° NW visible
29 Mar ? 02:13:28 16° S 02:15:57 52° W 02:19:19 10° NNW visible
30 Mar ? 01:41:31 12° SSE 01:44:26 46° ENE 01:47:43 10° N visible
31 Mar ? 01:10:45 10° ESE 01:12:59 17° ENE 01:15:14 10° NNE visible
31 Mar ? 02:43:21 10° SW 02:45:48 19° W 02:48:18 10° NW visible
01 Apr ? 02:11:19 14° S 02:14:03 56° W 02:17:26 10° NNW visible
